Regional Weather Roundup
Issued by NWS

Home | Current Version | Previous Version | Graphics & Text | Print | Product List | Glossary Off
Versions: 1 2 3 4 5 6 7 8 9 10 11 12 13 14 15 16 17 18 19 20 21 22 23 24 25 26 27 28 29 30 31 32 33 34 35 36 37 38 39 40 41 42 43 44 45 46 47 48 49 50

000
ASUS43 KMKX 242121
RWRWI

WISCONSIN REGIONAL WEATHER ROUNDUP
NATIONAL WEATHER SERVICE MILWAUKEE/SULLIVAN WI
400 PM CDT SAT SEP 24 2016

NOTE: "FAIR" INDICATES FEW OR NO CLOUDS BELOW 12,000 FEET WITH NO
SIGNIFICANT WEATHER AND/OR OBSTRUCTIONS TO VISIBILITY.

WIZ001-002-006>008-014>016-023>028-242200-
NORTHWEST WISCONSIN

CITY           SKY/WX    TMP DP  RH WIND       PRES   REMARKS
SUPERIOR ARPT  CLOUDY    60  58  92 NE9       30.07F
ASHLAND        CLOUDY    68  60  75 VRB6      30.10F
HAYWARD        CLOUDY    68  59  73 SE10      30.09F
SIREN          CLOUDY    67  60  78 SE9G18    30.05F
CUMBERLAND     CLOUDY    64  59  82 SE12      30.08S
RICE LAKE      CLOUDY    67  59  76 SE15      30.09F
CHETEK         NOT AVBL
LADYSMITH      CLOUDY    68  58  71 SE12G17   30.12F
EAU CLAIRE     CLOUDY    66  60  81 SE13G22   30.08F
MENOMONIE      CLOUDY    68  61  78 E10G17    30.08S
NEW RICHMOND   CLOUDY    67  60  78 SE9G18    30.05F
OSCEOLA        CLOUDY    68  65  91 SE12G21   30.06F
$$

WIZ003>005-009-010-017-018-242200-
NORTH CENTRAL WISCONSIN

CITY           SKY/WX    TMP DP  RH WIND       PRES   REMARKS
MANITOWISH WTR NOT AVBL
ARBOR VITAE    SUNNY     69  54  58 SE13      30.15F
WOODRUFF       SUNNY     69  54  58 SE13      30.15F
RHINELANDER    SUNNY     67  52  58 SE10      30.17F
EAGLE RIVER    SUNNY     68  49  52 SE8       30.16F
LAND O LAKES   SUNNY     69  52  53 SE9       30.19F
PHILLIPS       PTSUNNY   67  58  72 SE9       30.13F
TOMAHAWK       SUNNY     67  54  62 SE7       30.16F
MEDFORD        PTSUNNY   67  56  69 SE8       30.14F
MERRILL        SUNNY     68  55  61 SE14      30.17F
$$

WIZ029-030-035-036-043>047-242200-
CENTRAL WISCONSIN

CITY           SKY/WX    TMP DP  RH WIND       PRES   REMARKS
WAUSAU         PTSUNNY   69  53  56 SE15      30.14F
MOSINEE        MOSUNNY   68  55  64 SE13      30.17F
MARSHFIELD     PTSUNNY   68  56  65 SE10      30.14F
STEVENS POINT  CLOUDY    66  55  67 SE7       30.17F
WAUPACA        CLOUDY    71  56  60 E10       30.18F
WAUTOMA        PTSUNNY   69  58  67 E10       30.16F
WISC RAPIDS    LGT RAIN  68  58  70 SE12      30.16F
CAMP DOUGLAS   SUNNY     66  60  81 SE10      30.13F
$$

WIZ011>013-019>022-031-037>040-048>050-242200-
NORTHEAST WISCONSIN

CITY           SKY/WX    TMP DP  RH WIND       PRES   REMARKS
ANTIGO         CLOUDY    64  54  69 CALM      30.20S
SHAWANO        MOSUNNY   70  52  52 SE8       30.19F
OCONTO         NOT AVBL
STURGEON BAY   SUNNY     65  52  62 E8        30.23F
GREEN BAY      SUNNY     69  52  54 E10       30.20F
MANITOWOC      SUNNY     65  53  65 SE9       30.21F
APPLETON       PTSUNNY   68  50  52 SE8       30.18F
CLINTONVILLE   NOT AVBL
OSHKOSH        PTSUNNY   67  56  67 SE9       30.18F
$$

WIZ032>034-041-042-053>061-242200-
SOUTHWEST WISCONSIN

CITY           SKY/WX    TMP DP  RH WIND       PRES   REMARKS
LA CROSSE      CLOUDY    71  63  75 SE9       30.07F
SPARTA         CLOUDY    66  61  82 SE9G17    30.12F
VIROQUA        CLOUDY    67  62  85 SE9       30.11F
BOSCOBEL       CLOUDY    72  64  76 VRB5      30.10F
PRAIRIE DU CHI CLOUDY    71  64  78 SE9       30.07F
PLATTEVILLE    CLOUDY    73  68  84 E8        30.11F
$$

WIZ056-057-062-063-064-067-068-242200-
SOUTH CENTRAL WISCONSIN

CITY           SKY/WX    TMP DP  RH WIND       PRES   REMARKS
REEDSBURG      NOT AVBL
BARABOO/DELLS  PTSUNNY   69  59  71 E8        30.14F
LONE ROCK      CLOUDY    69  62  78 SE12      30.12F
MINERAL POINT  CLOUDY    72  64  78 SE12      30.12F
MADISON        MOSUNNY   70  61  73 SE12      30.13F
MIDDLETON      CLOUDY    71  62  72 SE10      30.14F
WATERTOWN      CLOUDY    68  62  80 SE8       30.16S
MONROE         PTSUNNY   72  63  73 SE7       30.13F
JANESVILLE     MOSUNNY   73  63  68 E9        30.14F
$$

WIZ051-052-058>065-066-070>072-242200-
SOUTHEAST WISCONSIN

CITY           SKY/WX    TMP DP  RH WIND       PRES   REMARKS
MILWAUKEE      PTSUNNY   68  60  75 E10       30.18F
WAUKESHA       CLOUDY    64  59  82 E10       30.19F
MILWAUKEE/TIMM CLOUDY    66  55  68 SE8       30.20F
RACINE         CLOUDY    68  60  75 E13       30.19F
BURLINGTON     CLOUDY    66  59  78 E12       30.17S
KENOSHA        CLOUDY    68  61  78 E10       30.18S
FOND DU LAC    CLOUDY    67  57  70 SE12      30.18F
SHEBOYGAN      PTSUNNY   65  55  70 SE7       30.21R
WEST BEND      CLOUDY    64  57  77 SE7       30.19F
JUNEAU         CLOUDY    65  59  80 E12       30.18F
$$

LSZ147-162-242200-
LAKE SUPERIOR

STATION/POSITION TIME  TEMP    WIND        PRES    WAVE
                       AIR SEA DIR/SP/G            HT/PER
                 (UTC) (F)     (DEG/KT/KT) (MB)    (FT/S)
W MID LAKE BUOY  2050   63 62   90/ 14/ 16 1020.2F   2/ 4
DEVILS ISLAND    2100   62      80/ 15/ 16 1019.2F
SAXON HARBOR     2000   70     180/  4/  8 1020.0
$$

LMZ867-665-643>646-242200-
LAKE MICHIGAN

STATION/POSITION TIME  TEMP    WIND        PRES    WAVE
                       AIR SEA DIR/SP/G            HT/PER
                 (UTC) (F)     (DEG/KT/KT) (MB)    (FT/S)
CHAMBERS ISLAND  2000   64      90/  4/  7 1023.4F
S GREEN BAY BUOY 2100   65 67  140/  8/  8 1022.5F
N MID LAKE BUOY  2050   62 68  110/ 10/ 14 1023.5F   1/ 3
NORTHPORT PIER   2000   64     120/  8/ 11 1023.7F
SISTER BAY       1908   71     130/ 11/ 13   N/A
KEWAUNEE LAKESHO 2100   64     130/  5/  7 1022.7F
SHEBOYGAN LAKESH 2100   64     130/  7/  7 1022.4F
PORT WASHINGTON  2040   65      70/  4/  5 1023.4F
ATWATER BUOY     2100   64 62  100/  6/  8 1022.2F
MILWAUKEE LAKESH 2110   63      70/  6/  7   N/A
S MID LAKE BUOY  2050   68 72  100/ 10/ 12 1021.4F   2/ 3
KENOSHA   LAKESH 2100   68     100/  9/ 11 1021.3F
$$

TC  - TEMPERATURE IN CELSIUS
VSB - VISIBILITY IN STATUTE MILES
WCI - WIND CHILL INDEX
HX  - HEAT INDEX




USA.gov is the U.S. government's official web portal to all federal, state and local government web resources and services.